GEFSCGP_prec_meanprecacc_204.txt.gz
Total_Precipitation_Accumulation
0.41 0.70 0.97 0.86 0.90 0.94 0.78 0.77 0.84 0.83 0.71 0.77 0.87 0.87 0.95 0.94 0.90 0.75 0.64 0.54 0.48 0.45 0.47 0.43 0.38 0.37 0.37 0.36 0.36 0.42 0.60 0.77 0.91 1.02 1.15 1.40 1.57 1.66 1.65 1.65 1.71 1.63 1.44 1.53
0.58 0.66 0.55 0.56 0.62 0.70 0.72 0.74 0.79 0.74 0.62 0.68 0.76 0.81 0.87 0.82 0.75 0.61 0.55 0.49 0.41 0.38 0.39 0.39 0.32 0.30 0.28 0.26 0.29 0.35 0.50 0.75 0.98 1.18 1.36 1.55 1.87 2.03 2.03 2.10 2.03 1.97 1.86 1.87
0.53 0.49 0.40 0.46 0.54 0.62 0.64 0.65 0.68 0.67 0.69 0.69 0.70 0.84 0.89 0.87 0.73 0.57 0.46 0.41 0.35 0.30 0.33 0.36 0.32 0.27 0.22 0.21 0.23 0.28 0.42 0.64 0.94 1.23 1.48 1.69 1.92 2.18 2.27 2.18 2.14 2.16 2.23 2.26
0.46 0.40 0.37 0.42 0.46 0.54 0.72 0.47 0.45 0.50 0.62 0.79 0.68 0.97 0.89 0.84 0.75 0.61 0.51 0.44 0.38 0.33 0.32 0.32 0.31 0.30 0.24 0.23 0.24 0.27 0.42 0.57 0.77 1.02 1.35 1.61 1.86 2.17 2.25 2.23 2.21 2.26 2.35 2.43
0.44 0.40 0.40 0.45 0.40 0.43 0.56 0.37 0.40 0.50 0.52 0.58 0.54 0.77 0.82 0.69 0.74 0.67 0.60 0.52 0.42 0.36 0.34 0.31 0.31 0.31 0.31 0.30 0.30 0.37 0.49 0.63 0.80 1.01 1.33 1.66 1.84 2.00 2.21 2.23 2.14 2.09 2.16 2.16
0.44 0.37 0.37 0.37 0.32 0.33 0.41 0.42 0.44 0.47 0.51 0.61 0.43 0.58 0.75 0.68 0.64 0.63 0.59 0.55 0.44 0.33 0.33 0.35 0.41 0.41 0.39 0.41 0.44 0.52 0.63 0.81 0.94 1.01 1.14 1.31 1.52 1.79 1.93 2.04 2.07 2.09 2.10 1.99
0.43 0.37 0.26 0.24 0.35 0.35 0.38 0.55 0.73 0.74 0.72 0.64 0.33 0.47 0.60 0.51 0.47 0.52 0.52 0.52 0.48 0.44 0.43 0.51 0.61 0.57 0.53 0.54 0.63 0.70 0.77 0.84 0.88 0.85 0.90 1.02 1.18 1.40 1.53 1.62 1.82 1.90 1.94 1.90
0.42 0.37 0.26 0.21 0.27 0.38 0.39 0.48 0.71 0.79 0.70 0.56 0.45 0.58 0.59 0.49 0.43 0.46 0.48 0.46 0.45 0.51 0.57 0.69 0.81 0.83 0.77 0.75 0.75 0.74 0.76 0.72 0.71 0.73 0.78 0.84 0.90 1.04 1.16 1.23 1.38 1.51 1.51 1.50
0.38 0.34 0.19 0.17 0.16 0.25 0.34 0.30 0.31 0.45 0.44 0.51 0.54 0.64 0.63 0.46 0.40 0.44 0.47 0.46 0.47 0.58 0.71 0.87 1.00 1.06 0.99 0.90 0.82 0.80 0.81 0.76 0.68 0.68 0.75 0.80 0.84 0.85 0.88 0.93 0.91 1.00 1.08 1.11
0.29 0.32 0.22 0.15 0.15 0.17 0.23 0.25 0.31 0.52 0.68 0.72 0.62 0.67 0.73 0.61 0.49 0.50 0.55 0.63 0.71 0.86 0.93 1.05 1.13 1.12 1.09 1.12 1.05 0.88 0.82 0.82 0.75 0.83 0.83 0.78 0.76 0.74 0.73 0.77 0.81 0.82 0.91 1.01
0.26 0.33 0.25 0.17 0.18 0.20 0.20 0.25 0.38 0.57 0.63 0.85 0.97 1.01 0.78 0.64 0.63 0.64 0.68 0.87 0.94 1.04 1.12 1.14 1.20 1.15 1.02 1.03 0.98 0.95 0.90 0.86 0.87 0.89 0.89 0.78 0.74 0.74 0.74 0.72 0.75 0.83 0.91 1.01
0.31 0.41 0.34 0.19 0.17 0.20 0.31 0.43 0.57 0.87 0.87 0.81 1.09 1.23 0.85 0.70 0.72 0.75 0.75 0.74 0.75 0.95 1.07 1.10 1.17 1.09 0.94 0.89 0.78 0.80 0.88 0.89 0.96 0.96 0.88 0.78 0.76 0.79 0.84 0.83 0.77 0.80 0.86 0.87
0.39 0.56 0.55 0.40 0.40 0.40 0.45 0.54 0.67 0.83 1.00 1.01 1.12 1.19 0.89 0.67 0.66 0.72 0.80 0.77 0.76 0.81 0.86 0.84 0.86 0.93 0.89 0.83 0.74 0.80 0.84 0.90 0.92 0.95 0.93 0.82 0.70 0.73 0.79 0.79 0.72 0.70 0.75 0.80
0.36 0.53 0.64 0.61 0.56 0.53 0.50 0.45 0.51 0.75 1.03 1.05 1.09 1.04 0.79 0.67 0.64 0.67 0.72 0.77 0.73 0.65 0.63 0.61 0.58 0.63 0.66 0.67 0.71 0.76 0.86 0.98 1.00 0.98 0.92 0.88 0.81 0.82 0.77 0.66 0.64 0.66 0.65 0.63
0.31 0.31 0.30 0.26 0.25 0.30 0.37 0.39 0.47 0.62 0.80 1.03 0.92 0.71 0.59 0.58 0.54 0.56 0.62 0.55 0.50 0.48 0.47 0.46 0.43 0.43 0.45 0.48 0.55 0.61 0.73 0.90 1.01 1.04 1.00 0.92 0.85 0.76 0.68 0.62 0.53 0.54 0.50 0.50
0.35 0.29 0.16 0.13 0.15 0.21 0.31 0.44 0.57 0.63 0.70 0.72 0.63 0.59 0.45 0.40 0.36 0.37 0.43 0.43 0.42 0.37 0.33 0.33 0.34 0.33 0.35 0.40 0.48 0.47 0.56 0.72 0.83 0.86 0.87 0.89 0.84 0.67 0.60 0.54 0.46 0.43 0.44 0.45
0.19 0.22 0.18 0.14 0.13 0.22 0.43 0.55 0.61 0.61 0.56 0.48 0.45 0.41 0.30 0.26 0.21 0.21 0.28 0.31 0.35 0.33 0.28 0.27 0.27 0.29 0.33 0.41 0.44 0.45 0.53 0.64 0.66 0.68 0.70 0.72 0.69 0.55 0.50 0.40 0.36 0.38 0.39 0.43
0.16 0.20 0.28 0.21 0.18 0.40 0.64 0.53 0.47 0.51 0.41 0.26 0.23 0.24 0.23 0.18 0.14 0.12 0.13 0.16 0.17 0.21 0.22 0.26 0.24 0.23 0.26 0.33 0.42 0.51 0.52 0.51 0.51 0.54 0.56 0.54 0.53 0.48 0.41 0.34 0.32 0.34 0.37 0.42
0.22 0.29 0.35 0.31 0.30 0.46 0.58 0.38 0.35 0.42 0.38 0.20 0.15 0.14 0.12 0.12 0.09 0.07 0.07 0.10 0.11 0.10 0.12 0.16 0.16 0.16 0.16 0.18 0.21 0.25 0.27 0.28 0.30 0.38 0.45 0.48 0.46 0.41 0.36 0.32 0.38 0.43 0.44 0.43
0.36 0.38 0.40 0.38 0.44 0.56 0.41 0.16 0.16 0.29 0.43 0.18 0.09 0.09 0.08 0.08 0.09 0.07 0.08 0.09 0.08 0.07 0.06 0.09 0.12 0.11 0.10 0.10 0.10 0.10 0.11 0.14 0.18 0.25 0.31 0.37 0.41 0.41 0.43 0.51 0.59 0.59 0.54 0.49
0.24 0.30 0.36 0.45 0.63 0.63 0.36 0.15 0.17 0.30 0.44 0.23 0.09 0.06 0.06 0.07 0.07 0.07 0.08 0.08 0.07 0.05 0.04 0.06 0.08 0.09 0.09 0.09 0.08 0.07 0.07 0.05 0.06 0.10 0.15 0.25 0.39 0.45 0.52 0.61 0.63 0.62 0.56 0.46
0.23 0.33 0.43 0.56 0.72 0.79 0.40 0.21 0.24 0.23 0.15 0.12 0.07 0.05 0.05 0.05 0.06 0.07 0.07 0.06 0.06 0.06 0.05 0.06 0.06 0.07 0.09 0.10 0.08 0.08 0.12 0.08 0.07 0.09 0.14 0.20 0.29 0.40 0.53 0.61 0.58 0.56 0.56 0.50
0.22 0.38 0.51 0.56 0.60 0.51 0.31 0.20 0.15 0.10 0.10 0.05 0.04 0.03 0.03 0.03 0.05 0.06 0.07 0.07 0.05 0.06 0.05 0.06 0.07 0.07 0.08 0.08 0.09 0.08 0.09 0.09 0.08 0.09 0.09 0.11 0.18 0.30 0.45 0.50 0.49 0.50 0.51 0.50
0.11 0.14 0.22 0.23 0.17 0.16 0.14 0.11 0.06 0.04 0.05 0.02 0.01 0.01 0.02 0.02 0.03 0.05 0.06 0.06 0.06 0.06 0.05 0.05 0.05 0.06 0.06 0.07 0.07 0.09 0.09 0.08 0.07 0.08 0.08 0.08 0.08 0.10 0.16 0.21 0.26 0.33 0.38 0.39
0.11 0.12 0.19 0.22 0.11 0.07 0.06 0.05 0.03 0.02 0.02 0.01 0.01 0.01 0.01 0.02 0.02 0.03 0.05 0.05 0.05 0.06 0.06 0.05 0.05 0.06 0.06 0.06 0.06 0.08 0.08 0.08 0.08 0.08 0.07 0.07 0.09 0.12 0.12 0.13 0.16 0.19 0.21 0.26
0.08 0.13 0.18 0.21 0.14 0.07 0.05 0.04 0.03 0.02 0.01 0.01 0.01 0.01 0.00 0.01 0.02 0.02 0.03 0.04 0.04 0.05 0.05 0.05 0.06 0.07 0.07 0.06 0.07 0.07 0.07 0.08 0.08 0.09 0.08 0.06 0.07 0.09 0.09 0.10 0.12 0.13 0.13 0.15

GEFSCGP_prec_meanprecacc_210.txt.gz
Total_Precipitation_Accumulation
0.42 0.71 0.98 0.88 0.91 0.96 0.80 0.78 0.85 0.84 0.72 0.79 0.89 0.89 0.97 0.95 0.91 0.76 0.64 0.55 0.49 0.47 0.49 0.44 0.39 0.38 0.38 0.36 0.36 0.42 0.60 0.77 0.92 1.02 1.16 1.41 1.57 1.67 1.66 1.67 1.72 1.63 1.44 1.53
0.59 0.68 0.56 0.57 0.64 0.72 0.72 0.75 0.80 0.75 0.62 0.68 0.77 0.83 0.88 0.83 0.77 0.62 0.55 0.49 0.42 0.40 0.41 0.40 0.33 0.31 0.29 0.26 0.29 0.36 0.51 0.75 0.98 1.19 1.36 1.55 1.87 2.04 2.04 2.11 2.03 1.97 1.86 1.88
0.54 0.50 0.41 0.48 0.56 0.64 0.65 0.65 0.68 0.67 0.69 0.69 0.72 0.86 0.91 0.88 0.74 0.57 0.47 0.41 0.36 0.31 0.34 0.36 0.32 0.27 0.22 0.21 0.23 0.29 0.42 0.65 0.94 1.24 1.49 1.69 1.93 2.19 2.28 2.18 2.14 2.16 2.23 2.27
0.46 0.41 0.39 0.44 0.48 0.56 0.74 0.47 0.46 0.51 0.63 0.80 0.69 0.99 0.90 0.85 0.76 0.61 0.52 0.44 0.38 0.33 0.32 0.32 0.31 0.31 0.24 0.24 0.25 0.28 0.42 0.58 0.78 1.03 1.36 1.61 1.87 2.18 2.26 2.24 2.22 2.27 2.36 2.43
0.45 0.41 0.41 0.47 0.41 0.44 0.57 0.37 0.40 0.50 0.53 0.59 0.55 0.77 0.83 0.69 0.75 0.67 0.60 0.52 0.43 0.37 0.34 0.32 0.31 0.31 0.32 0.30 0.31 0.38 0.50 0.63 0.80 1.02 1.34 1.66 1.84 2.01 2.21 2.24 2.15 2.10 2.17 2.17
0.45 0.38 0.38 0.38 0.33 0.34 0.41 0.42 0.44 0.47 0.52 0.62 0.43 0.58 0.75 0.68 0.64 0.63 0.59 0.56 0.45 0.34 0.33 0.36 0.41 0.42 0.40 0.42 0.45 0.53 0.64 0.82 0.95 1.02 1.15 1.32 1.52 1.80 1.93 2.04 2.08 2.11 2.12 1.99
0.44 0.37 0.27 0.24 0.36 0.36 0.38 0.56 0.74 0.75 0.73 0.64 0.33 0.47 0.60 0.51 0.47 0.52 0.52 0.52 0.49 0.45 0.44 0.51 0.61 0.57 0.54 0.56 0.65 0.71 0.79 0.85 0.88 0.86 0.91 1.02 1.19 1.40 1.54 1.62 1.82 1.90 1.95 1.91
0.43 0.38 0.26 0.21 0.27 0.38 0.40 0.49 0.72 0.80 0.70 0.57 0.45 0.58 0.59 0.49 0.43 0.46 0.48 0.46 0.46 0.52 0.57 0.69 0.81 0.83 0.78 0.78 0.78 0.76 0.78 0.74 0.72 0.73 0.79 0.84 0.90 1.04 1.16 1.23 1.38 1.52 1.52 1.50
0.39 0.35 0.20 0.18 0.16 0.25 0.35 0.31 0.31 0.45 0.44 0.52 0.54 0.64 0.63 0.46 0.40 0.44 0.47 0.47 0.47 0.58 0.72 0.87 1.01 1.07 0.99 0.92 0.86 0.83 0.83 0.78 0.69 0.69 0.76 0.81 0.85 0.85 0.88 0.93 0.92 1.00 1.08 1.12
0.31 0.34 0.22 0.15 0.16 0.18 0.23 0.26 0.32 0.53 0.69 0.73 0.62 0.67 0.74 0.61 0.49 0.51 0.56 0.63 0.72 0.86 0.93 1.05 1.13 1.12 1.10 1.13 1.09 0.91 0.84 0.84 0.77 0.84 0.84 0.79 0.77 0.74 0.73 0.77 0.81 0.83 0.92 1.01
0.28 0.35 0.26 0.18 0.19 0.21 0.21 0.26 0.39 0.58 0.64 0.85 0.98 1.02 0.78 0.64 0.63 0.64 0.69 0.88 0.95 1.05 1.13 1.14 1.21 1.16 1.03 1.04 1.02 0.99 0.93 0.87 0.88 0.90 0.90 0.79 0.76 0.77 0.76 0.72 0.75 0.83 0.92 1.01
0.33 0.43 0.36 0.20 0.18 0.21 0.31 0.44 0.59 0.89 0.88 0.81 1.10 1.23 0.85 0.70 0.72 0.75 0.75 0.74 0.75 0.95 1.08 1.11 1.18 1.11 0.96 0.92 0.81 0.84 0.92 0.92 0.98 0.98 0.89 0.80 0.78 0.81 0.86 0.84 0.78 0.81 0.86 0.87
0.42 0.58 0.57 0.41 0.41 0.41 0.45 0.54 0.67 0.84 1.00 1.02 1.12 1.20 0.89 0.67 0.66 0.72 0.80 0.78 0.76 0.81 0.86 0.85 0.88 0.95 0.91 0.87 0.77 0.83 0.89 0.95 0.96 0.98 0.95 0.84 0.72 0.75 0.80 0.81 0.73 0.71 0.76 0.81
0.40 0.55 0.65 0.62 0.56 0.54 0.50 0.45 0.51 0.75 1.04 1.06 1.10 1.04 0.79 0.67 0.64 0.67 0.72 0.77 0.74 0.65 0.63 0.62 0.59 0.66 0.69 0.71 0.75 0.80 0.90 1.03 1.05 1.03 0.95 0.89 0.82 0.83 0.78 0.69 0.66 0.67 0.66 0.64
0.33 0.33 0.31 0.27 0.26 0.30 0.38 0.39 0.48 0.62 0.80 1.03 0.92 0.71 0.59 0.58 0.54 0.56 0.62 0.55 0.51 0.48 0.47 0.47 0.44 0.45 0.48 0.51 0.59 0.66 0.77 0.94 1.05 1.10 1.05 0.94 0.86 0.77 0.69 0.63 0.55 0.56 0.51 0.51
0.37 0.31 0.18 0.14 0.16 0.21 0.32 0.44 0.57 0.63 0.70 0.72 0.63 0.59 0.45 0.40 0.36 0.37 0.44 0.43 0.42 0.38 0.33 0.33 0.35 0.34 0.38 0.43 0.51 0.50 0.60 0.76 0.86 0.91 0.92 0.93 0.87 0.69 0.61 0.54 0.47 0.45 0.45 0.46
0.21 0.24 0.20 0.15 0.13 0.23 0.44 0.55 0.62 0.61 0.56 0.48 0.45 0.41 0.30 0.27 0.21 0.21 0.28 0.31 0.35 0.34 0.29 0.27 0.27 0.30 0.35 0.44 0.48 0.50 0.58 0.69 0.70 0.74 0.75 0.77 0.73 0.58 0.52 0.41 0.37 0.40 0.41 0.44
0.17 0.22 0.30 0.22 0.19 0.41 0.64 0.53 0.47 0.51 0.41 0.26 0.23 0.24 0.23 0.19 0.15 0.12 0.13 0.16 0.17 0.21 0.22 0.27 0.25 0.24 0.27 0.35 0.45 0.56 0.58 0.57 0.56 0.59 0.61 0.58 0.57 0.52 0.45 0.36 0.33 0.35 0.38 0.43
0.23 0.30 0.37 0.33 0.32 0.47 0.58 0.39 0.36 0.42 0.38 0.20 0.15 0.14 0.12 0.12 0.09 0.07 0.07 0.10 0.11 0.11 0.14 0.18 0.18 0.17 0.18 0.20 0.23 0.28 0.30 0.31 0.32 0.41 0.48 0.51 0.50 0.45 0.40 0.35 0.40 0.44 0.44 0.44
0.37 0.39 0.42 0.40 0.46 0.57 0.41 0.17 0.16 0.29 0.43 0.18 0.10 0.09 0.08 0.08 0.09 0.07 0.08 0.10 0.09 0.08 0.07 0.10 0.13 0.12 0.12 0.12 0.13 0.13 0.15 0.19 0.22 0.28 0.34 0.40 0.44 0.45 0.47 0.55 0.62 0.61 0.56 0.50
0.26 0.31 0.38 0.46 0.64 0.64 0.36 0.15 0.17 0.31 0.44 0.23 0.10 0.06 0.06 0.07 0.07 0.07 0.09 0.09 0.08 0.07 0.06 0.07 0.09 0.10 0.10 0.10 0.09 0.10 0.11 0.11 0.11 0.14 0.19 0.29 0.43 0.49 0.55 0.65 0.66 0.64 0.57 0.47
0.25 0.35 0.44 0.57 0.74 0.81 0.41 0.21 0.25 0.23 0.16 0.12 0.07 0.05 0.05 0.05 0.06 0.07 0.07 0.07 0.06 0.07 0.06 0.06 0.07 0.08 0.10 0.11 0.09 0.09 0.14 0.12 0.10 0.12 0.17 0.24 0.33 0.43 0.57 0.65 0.62 0.60 0.58 0.51
0.23 0.39 0.53 0.57 0.62 0.52 0.32 0.21 0.15 0.10 0.10 0.05 0.04 0.03 0.03 0.03 0.05 0.06 0.08 0.07 0.06 0.06 0.06 0.07 0.07 0.08 0.08 0.09 0.09 0.09 0.10 0.11 0.10 0.11 0.12 0.14 0.21 0.33 0.48 0.54 0.55 0.56 0.56 0.54
0.12 0.15 0.23 0.24 0.18 0.17 0.14 0.12 0.07 0.04 0.05 0.02 0.01 0.01 0.02 0.03 0.03 0.05 0.06 0.06 0.06 0.06 0.05 0.05 0.06 0.06 0.07 0.07 0.08 0.10 0.11 0.10 0.09 0.10 0.11 0.10 0.10 0.12 0.19 0.26 0.34 0.40 0.44 0.44
0.12 0.13 0.20 0.23 0.12 0.07 0.06 0.06 0.04 0.03 0.03 0.01 0.01 0.01 0.01 0.02 0.02 0.03 0.05 0.05 0.06 0.06 0.06 0.05 0.06 0.07 0.06 0.07 0.07 0.09 0.10 0.10 0.10 0.10 0.09 0.09 0.11 0.13 0.12 0.14 0.18 0.22 0.25 0.32
0.09 0.14 0.18 0.21 0.14 0.08 0.05 0.04 0.03 0.03 0.02 0.01 0.01 0.01 0.00 0.01 0.02 0.02 0.03 0.04 0.04 0.05 0.05 0.06 0.07 0.08 0.07 0.07 0.08 0.08 0.08 0.09 0.10 0.11 0.10 0.08 0.08 0.10 0.11 0.12 0.13 0.15 0.15 0.18

GEFSCGP_prec_meanprecacc_216.txt.gz
Total_Precipitation_Accumulation
0.43 0.73 1.02 0.92 0.94 0.98 0.81 0.81 0.87 0.86 0.72 0.80 0.90 0.91 0.98 0.96 0.92 0.77 0.66 0.57 0.52 0.51 0.52 0.46 0.40 0.39 0.39 0.37 0.37 0.42 0.60 0.77 0.92 1.02 1.16 1.41 1.57 1.67 1.67 1.68 1.73 1.64 1.44 1.53
0.62 0.71 0.58 0.58 0.64 0.72 0.74 0.77 0.82 0.76 0.63 0.70 0.79 0.85 0.89 0.85 0.78 0.63 0.57 0.51 0.44 0.42 0.44 0.42 0.34 0.32 0.30 0.27 0.30 0.36 0.51 0.75 0.98 1.19 1.36 1.55 1.87 2.04 2.04 2.11 2.04 1.98 1.86 1.88
0.57 0.52 0.42 0.49 0.57 0.65 0.67 0.67 0.70 0.69 0.71 0.71 0.73 0.89 0.93 0.89 0.75 0.58 0.48 0.43 0.39 0.32 0.35 0.37 0.33 0.28 0.23 0.22 0.24 0.29 0.42 0.65 0.95 1.24 1.49 1.69 1.93 2.19 2.28 2.19 2.15 2.18 2.24 2.27
0.49 0.42 0.39 0.45 0.48 0.57 0.75 0.49 0.46 0.51 0.65 0.83 0.71 1.02 0.93 0.85 0.76 0.62 0.53 0.46 0.41 0.34 0.33 0.33 0.31 0.31 0.25 0.24 0.25 0.29 0.43 0.58 0.78 1.04 1.36 1.62 1.87 2.19 2.27 2.25 2.24 2.28 2.37 2.44
0.47 0.42 0.42 0.48 0.42 0.45 0.59 0.38 0.40 0.51 0.54 0.61 0.56 0.80 0.85 0.70 0.75 0.67 0.61 0.53 0.45 0.39 0.35 0.32 0.31 0.31 0.32 0.31 0.31 0.39 0.51 0.64 0.81 1.02 1.34 1.66 1.85 2.01 2.22 2.24 2.16 2.10 2.18 2.18
0.46 0.38 0.38 0.39 0.33 0.34 0.42 0.42 0.45 0.48 0.54 0.66 0.44 0.59 0.76 0.69 0.64 0.63 0.59 0.57 0.47 0.37 0.35 0.37 0.42 0.42 0.40 0.43 0.46 0.54 0.64 0.82 0.95 1.03 1.15 1.32 1.53 1.81 1.94 2.05 2.09 2.11 2.12 2.00
0.45 0.38 0.28 0.25 0.36 0.36 0.39 0.58 0.77 0.78 0.77 0.67 0.33 0.47 0.61 0.52 0.47 0.53 0.53 0.53 0.50 0.46 0.45 0.52 0.62 0.58 0.54 0.56 0.66 0.73 0.80 0.87 0.90 0.87 0.91 1.03 1.19 1.42 1.55 1.63 1.83 1.91 1.96 1.92
0.45 0.41 0.27 0.22 0.28 0.39 0.40 0.50 0.76 0.85 0.73 0.58 0.45 0.59 0.60 0.49 0.43 0.46 0.48 0.47 0.46 0.52 0.58 0.71 0.83 0.84 0.78 0.78 0.80 0.78 0.80 0.76 0.73 0.74 0.79 0.84 0.90 1.06 1.17 1.24 1.39 1.52 1.53 1.51
0.41 0.37 0.20 0.18 0.16 0.26 0.36 0.32 0.32 0.48 0.46 0.54 0.55 0.65 0.64 0.46 0.41 0.44 0.47 0.47 0.48 0.59 0.72 0.88 1.02 1.08 1.00 0.93 0.88 0.85 0.87 0.81 0.71 0.70 0.76 0.82 0.87 0.88 0.89 0.94 0.92 1.01 1.09 1.13
0.32 0.35 0.23 0.16 0.16 0.18 0.24 0.26 0.33 0.56 0.73 0.77 0.64 0.69 0.76 0.61 0.49 0.51 0.57 0.65 0.73 0.87 0.93 1.05 1.14 1.13 1.10 1.14 1.10 0.94 0.87 0.87 0.79 0.85 0.85 0.80 0.79 0.75 0.74 0.78 0.82 0.84 0.93 1.03
0.29 0.37 0.27 0.19 0.20 0.21 0.21 0.27 0.41 0.60 0.67 0.91 1.02 1.04 0.79 0.64 0.63 0.64 0.70 0.90 0.96 1.05 1.13 1.14 1.22 1.17 1.04 1.05 1.03 1.01 0.95 0.90 0.90 0.91 0.91 0.80 0.78 0.78 0.76 0.73 0.76 0.85 0.93 1.04
0.34 0.44 0.37 0.21 0.18 0.21 0.32 0.44 0.60 0.92 0.91 0.84 1.14 1.26 0.85 0.71 0.72 0.75 0.76 0.76 0.76 0.95 1.08 1.11 1.19 1.12 0.96 0.93 0.83 0.86 0.94 0.95 1.00 0.99 0.90 0.81 0.82 0.83 0.87 0.85 0.79 0.83 0.88 0.90
0.43 0.60 0.59 0.44 0.44 0.42 0.46 0.54 0.68 0.85 1.03 1.05 1.16 1.21 0.90 0.68 0.66 0.73 0.80 0.78 0.76 0.81 0.87 0.85 0.88 0.96 0.92 0.88 0.79 0.85 0.91 0.98 0.98 1.00 0.98 0.87 0.76 0.77 0.82 0.82 0.75 0.73 0.78 0.82
0.41 0.57 0.68 0.66 0.59 0.55 0.51 0.46 0.51 0.75 1.05 1.08 1.11 1.04 0.80 0.68 0.65 0.68 0.72 0.77 0.74 0.65 0.63 0.62 0.60 0.67 0.70 0.72 0.77 0.82 0.92 1.06 1.09 1.07 1.00 0.96 0.88 0.88 0.81 0.71 0.68 0.69 0.68 0.66
0.35 0.34 0.32 0.28 0.26 0.31 0.38 0.40 0.48 0.62 0.80 1.03 0.92 0.71 0.59 0.58 0.54 0.56 0.62 0.55 0.51 0.48 0.47 0.47 0.44 0.46 0.49 0.53 0.61 0.68 0.79 0.96 1.08 1.14 1.10 1.01 0.94 0.83 0.74 0.66 0.58 0.58 0.53 0.53
0.38 0.32 0.18 0.15 0.17 0.22 0.32 0.44 0.57 0.63 0.70 0.72 0.63 0.59 0.45 0.40 0.36 0.38 0.44 0.43 0.42 0.38 0.33 0.33 0.35 0.35 0.39 0.45 0.53 0.53 0.62 0.79 0.90 0.96 0.97 0.99 0.94 0.77 0.68 0.59 0.51 0.48 0.47 0.48
0.24 0.25 0.21 0.16 0.14 0.24 0.45 0.55 0.62 0.61 0.57 0.48 0.45 0.41 0.30 0.27 0.21 0.22 0.28 0.31 0.35 0.34 0.29 0.27 0.27 0.30 0.36 0.45 0.49 0.53 0.62 0.72 0.75 0.79 0.80 0.82 0.80 0.65 0.58 0.47 0.42 0.43 0.44 0.46
0.21 0.25 0.32 0.24 0.21 0.43 0.65 0.53 0.47 0.51 0.41 0.26 0.23 0.24 0.23 0.19 0.15 0.12 0.13 0.16 0.18 0.21 0.22 0.27 0.25 0.24 0.28 0.36 0.46 0.57 0.60 0.60 0.60 0.64 0.65 0.63 0.62 0.58 0.50 0.41 0.38 0.39 0.42 0.46
0.24 0.32 0.40 0.35 0.35 0.49 0.58 0.39 0.36 0.42 0.38 0.20 0.15 0.14 0.12 0.12 0.09 0.07 0.07 0.10 0.11 0.11 0.14 0.18 0.18 0.17 0.18 0.21 0.24 0.29 0.32 0.33 0.35 0.44 0.51 0.55 0.55 0.51 0.45 0.40 0.45 0.50 0.48 0.47
0.37 0.41 0.44 0.42 0.50 0.60 0.43 0.18 0.17 0.30 0.44 0.18 0.10 0.09 0.08 0.08 0.10 0.08 0.08 0.10 0.09 0.08 0.07 0.10 0.13 0.12 0.12 0.13 0.14 0.15 0.17 0.20 0.23 0.29 0.35 0.42 0.47 0.49 0.51 0.59 0.67 0.67 0.63 0.56
0.28 0.33 0.41 0.49 0.67 0.65 0.38 0.17 0.18 0.32 0.45 0.23 0.10 0.06 0.06 0.07 0.08 0.07 0.09 0.09 0.08 0.07 0.06 0.07 0.09 0.10 0.11 0.11 0.10 0.12 0.13 0.13 0.13 0.14 0.20 0.31 0.45 0.52 0.59 0.68 0.70 0.67 0.61 0.54
0.28 0.38 0.47 0.60 0.78 0.83 0.42 0.23 0.27 0.24 0.16 0.13 0.07 0.05 0.05 0.05 0.06 0.07 0.07 0.07 0.06 0.07 0.06 0.07 0.07 0.08 0.10 0.11 0.09 0.09 0.15 0.14 0.13 0.14 0.18 0.26 0.36 0.48 0.61 0.68 0.64 0.62 0.61 0.55
0.26 0.44 0.59 0.61 0.65 0.54 0.33 0.22 0.16 0.11 0.10 0.05 0.04 0.03 0.03 0.03 0.05 0.06 0.08 0.07 0.06 0.06 0.06 0.07 0.08 0.08 0.09 0.09 0.09 0.09 0.11 0.13 0.13 0.14 0.14 0.16 0.24 0.37 0.53 0.58 0.59 0.60 0.61 0.58
0.14 0.17 0.25 0.25 0.19 0.17 0.15 0.12 0.07 0.04 0.05 0.02 0.01 0.02 0.02 0.03 0.03 0.05 0.06 0.06 0.06 0.06 0.05 0.05 0.06 0.07 0.07 0.08 0.09 0.11 0.12 0.11 0.11 0.13 0.14 0.12 0.12 0.16 0.23 0.30 0.38 0.44 0.48 0.48
0.13 0.14 0.21 0.24 0.12 0.08 0.07 0.06 0.04 0.03 0.03 0.01 0.01 0.01 0.01 0.02 0.03 0.03 0.05 0.05 0.06 0.06 0.06 0.05 0.06 0.07 0.06 0.07 0.07 0.10 0.11 0.11 0.11 0.12 0.12 0.12 0.13 0.15 0.15 0.17 0.22 0.26 0.28 0.35
0.09 0.15 0.20 0.22 0.15 0.09 0.06 0.04 0.03 0.03 0.02 0.01 0.01 0.01 0.00 0.01 0.02 0.03 0.03 0.04 0.04 0.05 0.05 0.06 0.07 0.08 0.07 0.08 0.08 0.08 0.09 0.10 0.11 0.12 0.11 0.09 0.10 0.12 0.13 0.14 0.16 0.18 0.18 0.22

GEFSCGP_prec_meanprecacc_222.txt.gz
Total_Precipitation_Accumulation
0.43 0.75 1.04 0.94 0.96 1.00 0.83 0.83 0.89 0.87 0.73 0.83 0.92 0.91 1.00 0.98 0.94 0.79 0.68 0.59 0.54 0.52 0.54 0.48 0.42 0.45 0.46 0.40 0.39 0.44 0.61 0.77 0.92 1.02 1.16 1.41 1.57 1.67 1.67 1.68 1.73 1.64 1.44 1.53
0.63 0.72 0.59 0.59 0.66 0.73 0.76 0.79 0.82 0.77 0.64 0.72 0.80 0.86 0.90 0.86 0.79 0.64 0.58 0.52 0.46 0.45 0.47 0.44 0.36 0.34 0.34 0.31 0.32 0.37 0.51 0.76 0.99 1.19 1.37 1.56 1.87 2.04 2.04 2.12 2.04 1.98 1.86 1.88
0.58 0.54 0.43 0.50 0.58 0.66 0.68 0.68 0.70 0.70 0.72 0.73 0.74 0.90 0.94 0.91 0.76 0.59 0.49 0.44 0.40 0.34 0.37 0.38 0.34 0.30 0.25 0.26 0.26 0.30 0.43 0.66 0.96 1.25 1.50 1.70 1.93 2.19 2.28 2.19 2.16 2.18 2.24 2.27
0.51 0.43 0.40 0.46 0.49 0.57 0.77 0.49 0.47 0.52 0.66 0.84 0.72 1.03 0.94 0.87 0.77 0.62 0.53 0.46 0.41 0.37 0.35 0.34 0.32 0.32 0.27 0.27 0.27 0.31 0.44 0.60 0.79 1.05 1.37 1.63 1.88 2.19 2.27 2.25 2.24 2.28 2.37 2.44
0.49 0.43 0.43 0.49 0.43 0.45 0.59 0.38 0.41 0.51 0.55 0.62 0.57 0.81 0.86 0.70 0.76 0.68 0.61 0.53 0.45 0.40 0.37 0.33 0.32 0.32 0.34 0.33 0.33 0.41 0.52 0.65 0.82 1.04 1.35 1.68 1.86 2.01 2.22 2.25 2.16 2.11 2.18 2.18
0.47 0.39 0.39 0.39 0.34 0.35 0.42 0.43 0.45 0.49 0.55 0.68 0.45 0.60 0.77 0.69 0.64 0.63 0.59 0.57 0.47 0.37 0.37 0.38 0.42 0.43 0.41 0.45 0.49 0.57 0.67 0.84 0.97 1.05 1.17 1.34 1.54 1.81 1.94 2.05 2.09 2.12 2.13 2.01
0.46 0.38 0.28 0.25 0.37 0.37 0.39 0.59 0.80 0.80 0.79 0.69 0.34 0.48 0.61 0.52 0.47 0.53 0.53 0.53 0.50 0.46 0.47 0.54 0.63 0.58 0.55 0.58 0.68 0.75 0.83 0.89 0.92 0.89 0.94 1.05 1.21 1.43 1.55 1.64 1.84 1.93 1.97 1.93
0.46 0.41 0.27 0.22 0.28 0.40 0.41 0.52 0.80 0.88 0.75 0.59 0.46 0.60 0.61 0.49 0.43 0.46 0.48 0.47 0.46 0.52 0.59 0.73 0.84 0.84 0.79 0.79 0.81 0.80 0.83 0.78 0.76 0.77 0.83 0.88 0.93 1.08 1.18 1.26 1.41 1.55 1.55 1.53
0.43 0.38 0.20 0.18 0.16 0.26 0.36 0.33 0.33 0.49 0.47 0.55 0.56 0.66 0.65 0.47 0.41 0.44 0.48 0.48 0.49 0.60 0.73 0.89 1.05 1.10 1.00 0.93 0.89 0.86 0.88 0.82 0.73 0.72 0.79 0.84 0.89 0.90 0.92 0.97 0.96 1.05 1.13 1.15
0.34 0.36 0.23 0.16 0.16 0.19 0.25 0.27 0.34 0.57 0.76 0.80 0.66 0.71 0.79 0.62 0.50 0.51 0.58 0.66 0.74 0.88 0.94 1.06 1.16 1.16 1.13 1.15 1.11 0.95 0.89 0.89 0.81 0.88 0.87 0.82 0.81 0.78 0.77 0.81 0.86 0.88 0.95 1.04
0.30 0.38 0.28 0.20 0.21 0.22 0.22 0.28 0.42 0.62 0.70 0.94 1.06 1.06 0.80 0.65 0.64 0.65 0.71 0.91 0.97 1.05 1.14 1.15 1.23 1.19 1.07 1.07 1.05 1.02 0.96 0.91 0.92 0.93 0.93 0.81 0.80 0.81 0.79 0.77 0.80 0.89 0.96 1.05
0.34 0.45 0.38 0.22 0.20 0.23 0.33 0.45 0.61 0.96 0.94 0.87 1.16 1.28 0.86 0.71 0.73 0.76 0.77 0.76 0.76 0.95 1.09 1.12 1.20 1.14 0.98 0.94 0.84 0.87 0.95 0.95 1.01 1.01 0.92 0.83 0.85 0.86 0.90 0.88 0.84 0.87 0.91 0.92
0.44 0.60 0.61 0.45 0.45 0.43 0.47 0.56 0.70 0.88 1.06 1.07 1.18 1.23 0.90 0.68 0.67 0.74 0.81 0.78 0.77 0.82 0.87 0.86 0.90 0.97 0.93 0.89 0.80 0.86 0.92 0.99 0.99 1.01 1.00 0.90 0.79 0.80 0.85 0.86 0.80 0.77 0.81 0.85
0.42 0.58 0.69 0.67 0.60 0.56 0.52 0.47 0.54 0.78 1.07 1.09 1.12 1.05 0.81 0.69 0.66 0.68 0.73 0.78 0.74 0.66 0.64 0.63 0.60 0.67 0.71 0.73 0.78 0.83 0.93 1.07 1.10 1.08 1.02 0.97 0.90 0.91 0.84 0.75 0.72 0.73 0.72 0.69
0.35 0.35 0.32 0.28 0.27 0.32 0.39 0.40 0.50 0.64 0.81 1.04 0.93 0.72 0.60 0.59 0.55 0.57 0.63 0.56 0.52 0.50 0.48 0.47 0.45 0.47 0.51 0.54 0.63 0.69 0.80 0.97 1.08 1.15 1.11 1.02 0.95 0.86 0.78 0.70 0.61 0.62 0.55 0.54
0.38 0.32 0.18 0.15 0.17 0.22 0.32 0.45 0.58 0.65 0.71 0.73 0.64 0.60 0.46 0.41 0.37 0.38 0.45 0.45 0.44 0.39 0.34 0.34 0.36 0.37 0.42 0.47 0.55 0.54 0.64 0.80 0.91 0.97 0.99 1.02 0.98 0.81 0.72 0.63 0.54 0.50 0.49 0.50
0.25 0.26 0.22 0.16 0.14 0.25 0.46 0.56 0.62 0.62 0.57 0.49 0.46 0.42 0.31 0.27 0.21 0.22 0.29 0.32 0.36 0.35 0.30 0.28 0.28 0.31 0.37 0.46 0.51 0.54 0.63 0.73 0.76 0.80 0.82 0.86 0.85 0.70 0.64 0.53 0.45 0.45 0.45 0.48
0.25 0.28 0.34 0.25 0.22 0.44 0.65 0.53 0.47 0.52 0.42 0.28 0.25 0.25 0.24 0.19 0.15 0.12 0.14 0.16 0.18 0.22 0.23 0.28 0.26 0.25 0.28 0.36 0.47 0.59 0.62 0.61 0.62 0.66 0.68 0.66 0.66 0.62 0.54 0.44 0.41 0.41 0.43 0.47
0.27 0.35 0.43 0.37 0.36 0.49 0.59 0.40 0.37 0.44 0.40 0.22 0.16 0.16 0.13 0.12 0.10 0.07 0.08 0.11 0.12 0.12 0.15 0.19 0.19 0.18 0.19 0.22 0.25 0.30 0.33 0.34 0.35 0.45 0.53 0.57 0.58 0.54 0.49 0.43 0.48 0.51 0.50 0.49
0.40 0.46 0.49 0.45 0.52 0.61 0.44 0.18 0.18 0.31 0.47 0.20 0.11 0.10 0.08 0.09 0.10 0.08 0.08 0.11 0.10 0.08 0.08 0.11 0.14 0.13 0.13 0.14 0.15 0.16 0.18 0.21 0.23 0.29 0.36 0.43 0.49 0.52 0.53 0.63 0.69 0.69 0.64 0.57
0.30 0.37 0.45 0.51 0.71 0.68 0.39 0.17 0.19 0.35 0.50 0.26 0.11 0.07 0.07 0.08 0.08 0.08 0.09 0.10 0.09 0.07 0.06 0.07 0.10 0.11 0.12 0.12 0.11 0.13 0.14 0.14 0.14 0.15 0.21 0.31 0.46 0.53 0.61 0.72 0.75 0.71 0.63 0.55
0.29 0.40 0.52 0.65 0.84 0.86 0.44 0.25 0.29 0.27 0.18 0.15 0.08 0.06 0.06 0.06 0.07 0.07 0.08 0.07 0.08 0.08 0.06 0.07 0.07 0.08 0.11 0.12 0.10 0.10 0.16 0.15 0.14 0.15 0.19 0.27 0.38 0.49 0.62 0.70 0.67 0.67 0.66 0.59
0.27 0.49 0.69 0.69 0.70 0.56 0.34 0.24 0.18 0.12 0.11 0.06 0.05 0.04 0.03 0.04 0.05 0.07 0.08 0.07 0.06 0.07 0.06 0.07 0.08 0.08 0.09 0.10 0.10 0.10 0.12 0.15 0.14 0.15 0.14 0.17 0.25 0.38 0.55 0.61 0.62 0.62 0.64 0.62
0.14 0.20 0.32 0.29 0.20 0.18 0.16 0.14 0.10 0.06 0.06 0.03 0.02 0.02 0.02 0.03 0.04 0.05 0.06 0.06 0.06 0.07 0.06 0.05 0.07 0.07 0.08 0.09 0.10 0.12 0.14 0.14 0.13 0.14 0.15 0.14 0.14 0.17 0.25 0.33 0.40 0.47 0.52 0.53
0.13 0.14 0.24 0.25 0.13 0.09 0.08 0.07 0.06 0.05 0.04 0.02 0.01 0.01 0.02 0.02 0.03 0.03 0.06 0.05 0.06 0.07 0.06 0.05 0.06 0.07 0.07 0.08 0.08 0.10 0.13 0.14 0.14 0.14 0.14 0.14 0.16 0.17 0.18 0.19 0.24 0.29 0.32 0.39
0.09 0.15 0.21 0.23 0.15 0.09 0.07 0.05 0.05 0.04 0.03 0.02 0.01 0.01 0.01 0.02 0.03 0.03 0.03 0.04 0.05 0.05 0.06 0.06 0.07 0.08 0.08 0.08 0.09 0.08 0.09 0.11 0.13 0.14 0.13 0.12 0.12 0.14 0.15 0.16 0.18 0.21 0.22 0.27

GEFSCGP_prec_meanprecacc_228.txt.gz
Total_Precipitation_Accumulation
0.44 0.76 1.05 0.95 0.98 1.01 0.85 0.84 0.90 0.88 0.75 0.84 0.93 0.92 1.00 0.99 0.94 0.79 0.69 0.60 0.55 0.54 0.56 0.51 0.44 0.48 0.50 0.44 0.43 0.47 0.63 0.80 0.94 1.03 1.17 1.41 1.57 1.67 1.67 1.68 1.73 1.64 1.44 1.53
0.64 0.73 0.60 0.60 0.67 0.74 0.78 0.82 0.84 0.78 0.65 0.73 0.81 0.86 0.91 0.87 0.79 0.65 0.58 0.53 0.46 0.46 0.48 0.45 0.37 0.36 0.37 0.35 0.36 0.41 0.56 0.80 1.02 1.21 1.38 1.56 1.88 2.04 2.05 2.12 2.04 1.98 1.86 1.88
0.59 0.54 0.43 0.51 0.60 0.68 0.70 0.70 0.72 0.71 0.73 0.74 0.75 0.91 0.95 0.92 0.76 0.59 0.49 0.44 0.41 0.35 0.37 0.39 0.35 0.31 0.27 0.28 0.30 0.33 0.46 0.69 0.98 1.27 1.52 1.71 1.94 2.19 2.29 2.19 2.16 2.18 2.24 2.27
0.51 0.43 0.41 0.47 0.50 0.59 0.78 0.50 0.48 0.53 0.67 0.86 0.73 1.04 0.95 0.88 0.78 0.63 0.54 0.47 0.41 0.38 0.36 0.34 0.33 0.33 0.28 0.29 0.30 0.34 0.46 0.62 0.82 1.07 1.39 1.64 1.89 2.20 2.28 2.25 2.24 2.28 2.37 2.44
0.50 0.44 0.44 0.50 0.44 0.46 0.60 0.39 0.41 0.52 0.56 0.63 0.58 0.81 0.86 0.71 0.77 0.68 0.61 0.53 0.45 0.41 0.39 0.34 0.33 0.33 0.35 0.34 0.36 0.44 0.56 0.68 0.85 1.07 1.38 1.70 1.87 2.03 2.23 2.26 2.17 2.11 2.18 2.18
0.48 0.40 0.40 0.41 0.35 0.36 0.44 0.44 0.47 0.50 0.57 0.69 0.46 0.60 0.77 0.69 0.65 0.63 0.59 0.57 0.47 0.38 0.39 0.39 0.43 0.43 0.42 0.46 0.52 0.60 0.71 0.88 1.01 1.07 1.19 1.35 1.56 1.83 1.96 2.07 2.11 2.13 2.14 2.01
0.46 0.39 0.28 0.25 0.37 0.38 0.41 0.60 0.81 0.82 0.81 0.70 0.35 0.49 0.61 0.52 0.47 0.53 0.53 0.53 0.50 0.47 0.49 0.55 0.63 0.59 0.56 0.59 0.70 0.77 0.85 0.91 0.95 0.91 0.95 1.06 1.23 1.45 1.58 1.67 1.86 1.95 1.99 1.95
0.46 0.41 0.27 0.22 0.28 0.40 0.42 0.52 0.81 0.89 0.77 0.60 0.46 0.61 0.61 0.49 0.43 0.46 0.48 0.47 0.46 0.53 0.60 0.74 0.84 0.85 0.79 0.80 0.83 0.82 0.84 0.80 0.78 0.79 0.84 0.89 0.95 1.10 1.21 1.29 1.44 1.58 1.58 1.57
0.43 0.38 0.20 0.18 0.16 0.26 0.37 0.33 0.34 0.50 0.49 0.56 0.56 0.67 0.65 0.47 0.41 0.44 0.48 0.49 0.49 0.60 0.74 0.91 1.07 1.10 1.01 0.94 0.90 0.88 0.89 0.83 0.75 0.74 0.81 0.86 0.90 0.91 0.93 0.99 0.98 1.07 1.16 1.18
0.34 0.36 0.23 0.16 0.17 0.19 0.26 0.28 0.34 0.58 0.77 0.81 0.68 0.72 0.79 0.62 0.50 0.51 0.58 0.66 0.74 0.88 0.95 1.07 1.19 1.18 1.14 1.17 1.13 0.97 0.90 0.90 0.81 0.89 0.89 0.83 0.82 0.79 0.78 0.82 0.87 0.90 0.97 1.06
0.31 0.39 0.28 0.20 0.21 0.23 0.23 0.29 0.42 0.63 0.71 0.95 1.08 1.06 0.80 0.65 0.64 0.65 0.71 0.92 0.97 1.06 1.14 1.16 1.24 1.22 1.10 1.10 1.07 1.03 0.97 0.92 0.93 0.94 0.95 0.82 0.81 0.81 0.79 0.77 0.81 0.90 0.97 1.07
0.35 0.46 0.38 0.22 0.20 0.23 0.34 0.46 0.62 0.97 0.96 0.87 1.17 1.28 0.86 0.71 0.73 0.76 0.77 0.76 0.76 0.96 1.09 1.13 1.21 1.15 1.00 0.97 0.86 0.89 0.96 0.96 1.03 1.02 0.93 0.84 0.86 0.88 0.91 0.89 0.84 0.88 0.93 0.94
0.45 0.62 0.61 0.45 0.45 0.43 0.48 0.57 0.70 0.89 1.07 1.08 1.19 1.23 0.91 0.68 0.67 0.74 0.81 0.78 0.77 0.82 0.87 0.87 0.90 0.98 0.95 0.91 0.81 0.88 0.94 1.00 1.00 1.03 1.02 0.91 0.80 0.82 0.86 0.86 0.81 0.79 0.82 0.86
0.43 0.59 0.70 0.68 0.61 0.56 0.52 0.47 0.54 0.78 1.08 1.10 1.13 1.05 0.81 0.69 0.66 0.69 0.73 0.78 0.75 0.66 0.65 0.64 0.61 0.68 0.72 0.75 0.80 0.84 0.95 1.08 1.11 1.09 1.03 0.98 0.91 0.92 0.85 0.76 0.74 0.75 0.73 0.69
0.37 0.37 0.33 0.29 0.27 0.32 0.39 0.41 0.50 0.64 0.82 1.05 0.94 0.72 0.61 0.59 0.55 0.57 0.64 0.57 0.53 0.50 0.48 0.49 0.46 0.48 0.52 0.55 0.64 0.70 0.81 0.99 1.10 1.17 1.13 1.04 0.96 0.86 0.78 0.71 0.63 0.64 0.56 0.55
0.39 0.34 0.20 0.16 0.17 0.22 0.32 0.45 0.58 0.65 0.71 0.73 0.64 0.61 0.47 0.41 0.37 0.39 0.45 0.45 0.45 0.40 0.35 0.35 0.37 0.38 0.43 0.48 0.55 0.56 0.65 0.81 0.92 0.98 1.01 1.04 0.99 0.83 0.73 0.65 0.56 0.53 0.51 0.51
0.26 0.27 0.23 0.17 0.15 0.25 0.46 0.56 0.62 0.62 0.57 0.49 0.46 0.42 0.31 0.27 0.22 0.22 0.29 0.33 0.37 0.36 0.31 0.29 0.30 0.33 0.39 0.47 0.51 0.56 0.64 0.75 0.78 0.82 0.85 0.89 0.88 0.73 0.65 0.54 0.47 0.48 0.48 0.50
0.25 0.29 0.35 0.26 0.22 0.44 0.66 0.53 0.48 0.52 0.42 0.28 0.25 0.25 0.24 0.19 0.16 0.13 0.14 0.17 0.19 0.23 0.24 0.29 0.27 0.27 0.30 0.37 0.48 0.61 0.64 0.64 0.64 0.68 0.70 0.69 0.69 0.64 0.57 0.46 0.43 0.43 0.45 0.49
0.27 0.36 0.43 0.39 0.37 0.49 0.59 0.40 0.37 0.44 0.41 0.22 0.17 0.16 0.14 0.12 0.10 0.07 0.08 0.11 0.12 0.12 0.15 0.20 0.20 0.20 0.20 0.23 0.26 0.32 0.36 0.38 0.38 0.46 0.53 0.58 0.59 0.56 0.51 0.45 0.50 0.53 0.51 0.49
0.40 0.47 0.50 0.46 0.53 0.62 0.44 0.19 0.18 0.32 0.49 0.21 0.12 0.10 0.09 0.09 0.11 0.08 0.09 0.11 0.10 0.08 0.08 0.11 0.14 0.14 0.14 0.15 0.16 0.18 0.20 0.23 0.25 0.30 0.37 0.44 0.50 0.53 0.55 0.65 0.71 0.70 0.66 0.58
0.30 0.38 0.46 0.52 0.71 0.68 0.40 0.18 0.19 0.36 0.51 0.27 0.12 0.07 0.07 0.08 0.09 0.08 0.09 0.10 0.09 0.08 0.06 0.08 0.10 0.11 0.12 0.13 0.12 0.14 0.16 0.15 0.16 0.16 0.22 0.32 0.48 0.54 0.62 0.74 0.77 0.73 0.66 0.58
0.30 0.41 0.54 0.67 0.86 0.88 0.45 0.25 0.29 0.27 0.18 0.15 0.09 0.07 0.06 0.07 0.07 0.08 0.08 0.07 0.08 0.08 0.07 0.07 0.08 0.09 0.11 0.13 0.10 0.11 0.17 0.16 0.16 0.16 0.20 0.28 0.39 0.50 0.63 0.72 0.70 0.69 0.69 0.63
0.27 0.49 0.71 0.71 0.72 0.58 0.35 0.24 0.18 0.12 0.12 0.07 0.05 0.04 0.04 0.04 0.06 0.07 0.08 0.08 0.07 0.07 0.07 0.08 0.09 0.09 0.09 0.10 0.11 0.10 0.13 0.15 0.15 0.16 0.15 0.18 0.26 0.40 0.56 0.63 0.64 0.65 0.67 0.65
0.15 0.22 0.35 0.31 0.21 0.18 0.16 0.14 0.10 0.07 0.07 0.04 0.03 0.03 0.03 0.04 0.04 0.05 0.07 0.07 0.07 0.07 0.06 0.06 0.07 0.07 0.08 0.10 0.11 0.13 0.15 0.15 0.14 0.16 0.16 0.15 0.16 0.21 0.28 0.35 0.42 0.49 0.54 0.55
0.13 0.15 0.26 0.26 0.13 0.09 0.08 0.07 0.06 0.05 0.05 0.03 0.02 0.02 0.02 0.03 0.03 0.04 0.06 0.05 0.06 0.07 0.07 0.06 0.07 0.07 0.07 0.08 0.09 0.11 0.14 0.15 0.15 0.16 0.17 0.17 0.18 0.21 0.22 0.23 0.27 0.31 0.34 0.41
0.09 0.15 0.22 0.24 0.15 0.09 0.07 0.05 0.05 0.05 0.04 0.03 0.02 0.02 0.01 0.02 0.03 0.04 0.04 0.05 0.05 0.06 0.07 0.07 0.08 0.08 0.08 0.09 0.09 0.09 0.10 0.12 0.13 0.14 0.14 0.12 0.14 0.16 0.18 0.20 0.22 0.24 0.25 0.30

GEFSCGP_prec_meanprecacc_234.txt.gz
Total_Precipitation_Accumulation
0.45 0.77 1.05 0.96 0.98 1.02 0.85 0.85 0.92 0.90 0.76 0.85 0.94 0.92 1.01 0.99 0.95 0.80 0.70 0.61 0.57 0.55 0.57 0.51 0.44 0.49 0.52 0.47 0.47 0.51 0.65 0.82 0.95 1.05 1.18 1.42 1.58 1.68 1.69 1.68 1.73 1.64 1.45 1.53
0.64 0.73 0.60 0.60 0.67 0.75 0.78 0.83 0.85 0.80 0.66 0.74 0.82 0.87 0.92 0.87 0.80 0.65 0.58 0.53 0.47 0.46 0.48 0.45 0.37 0.36 0.39 0.39 0.40 0.46 0.59 0.82 1.04 1.23 1.40 1.58 1.89 2.05 2.05 2.12 2.05 1.98 1.86 1.88
0.59 0.54 0.43 0.51 0.60 0.68 0.71 0.71 0.73 0.72 0.75 0.75 0.76 0.91 0.96 0.92 0.77 0.59 0.49 0.44 0.41 0.36 0.38 0.39 0.35 0.31 0.28 0.30 0.33 0.39 0.49 0.71 1.00 1.29 1.53 1.73 1.95 2.21 2.29 2.20 2.16 2.18 2.24 2.28
0.52 0.44 0.41 0.48 0.51 0.60 0.79 0.50 0.48 0.54 0.69 0.88 0.74 1.05 0.95 0.88 0.78 0.63 0.54 0.47 0.42 0.38 0.37 0.35 0.33 0.34 0.29 0.30 0.34 0.40 0.49 0.63 0.84 1.10 1.41 1.65 1.90 2.22 2.30 2.27 2.25 2.29 2.37 2.44
0.50 0.44 0.45 0.52 0.45 0.47 0.61 0.39 0.42 0.53 0.58 0.65 0.59 0.82 0.87 0.71 0.77 0.68 0.61 0.53 0.45 0.42 0.40 0.35 0.34 0.34 0.36 0.36 0.40 0.49 0.58 0.70 0.86 1.09 1.40 1.72 1.89 2.05 2.24 2.27 2.18 2.12 2.19 2.19
0.48 0.40 0.41 0.42 0.35 0.36 0.44 0.45 0.47 0.51 0.58 0.71 0.47 0.61 0.78 0.69 0.65 0.64 0.60 0.57 0.48 0.39 0.40 0.41 0.44 0.44 0.43 0.48 0.55 0.66 0.73 0.90 1.03 1.09 1.21 1.37 1.58 1.85 1.97 2.08 2.12 2.14 2.15 2.02
0.46 0.39 0.28 0.26 0.38 0.39 0.42 0.61 0.83 0.84 0.83 0.72 0.36 0.50 0.62 0.52 0.47 0.53 0.53 0.53 0.50 0.47 0.50 0.57 0.64 0.60 0.57 0.61 0.72 0.81 0.88 0.94 0.98 0.93 0.96 1.08 1.24 1.47 1.60 1.68 1.88 1.96 2.00 1.95
0.46 0.42 0.28 0.23 0.29 0.41 0.42 0.53 0.83 0.91 0.79 0.62 0.48 0.62 0.62 0.49 0.43 0.46 0.48 0.47 0.47 0.53 0.61 0.75 0.85 0.85 0.80 0.81 0.84 0.84 0.87 0.82 0.80 0.82 0.86 0.90 0.96 1.12 1.23 1.31 1.46 1.59 1.58 1.57
0.44 0.38 0.21 0.18 0.17 0.27 0.38 0.34 0.35 0.52 0.50 0.58 0.58 0.68 0.65 0.47 0.41 0.44 0.48 0.49 0.50 0.61 0.74 0.92 1.07 1.10 1.01 0.95 0.91 0.90 0.92 0.85 0.77 0.78 0.85 0.87 0.91 0.92 0.94 1.00 1.00 1.08 1.16 1.19
0.35 0.37 0.24 0.16 0.17 0.19 0.26 0.29 0.35 0.60 0.79 0.83 0.69 0.73 0.80 0.62 0.50 0.51 0.58 0.67 0.75 0.89 0.96 1.08 1.20 1.19 1.14 1.17 1.13 0.97 0.92 0.93 0.84 0.90 0.91 0.85 0.83 0.79 0.78 0.83 0.88 0.90 0.97 1.06
0.31 0.40 0.29 0.20 0.22 0.23 0.23 0.29 0.43 0.64 0.72 0.96 1.09 1.08 0.81 0.65 0.64 0.65 0.71 0.92 0.97 1.06 1.15 1.18 1.25 1.23 1.11 1.11 1.07 1.04 0.98 0.95 0.95 0.96 0.96 0.84 0.82 0.82 0.79 0.78 0.82 0.91 0.98 1.07
0.36 0.47 0.39 0.22 0.20 0.23 0.34 0.46 0.63 0.98 0.97 0.88 1.18 1.29 0.87 0.71 0.73 0.76 0.77 0.76 0.77 0.96 1.10 1.14 1.21 1.16 1.02 0.99 0.87 0.89 0.97 0.97 1.04 1.03 0.95 0.86 0.88 0.89 0.92 0.89 0.85 0.89 0.93 0.94
0.46 0.63 0.62 0.46 0.45 0.44 0.48 0.57 0.71 0.89 1.08 1.09 1.20 1.24 0.91 0.69 0.68 0.74 0.81 0.78 0.77 0.82 0.87 0.87 0.90 0.99 0.96 0.92 0.84 0.89 0.95 1.01 1.01 1.04 1.04 0.92 0.81 0.83 0.87 0.87 0.81 0.79 0.83 0.86
0.45 0.60 0.71 0.69 0.61 0.56 0.52 0.47 0.54 0.79 1.08 1.11 1.13 1.06 0.81 0.69 0.66 0.69 0.73 0.78 0.75 0.66 0.65 0.64 0.61 0.69 0.73 0.76 0.81 0.86 0.96 1.10 1.13 1.11 1.05 0.99 0.92 0.93 0.86 0.78 0.75 0.76 0.74 0.70
0.38 0.38 0.34 0.29 0.28 0.32 0.39 0.41 0.50 0.64 0.82 1.05 0.94 0.73 0.62 0.61 0.56 0.57 0.64 0.57 0.53 0.50 0.48 0.49 0.47 0.49 0.53 0.56 0.65 0.72 0.82 1.01 1.12 1.19 1.16 1.07 0.99 0.88 0.80 0.73 0.64 0.65 0.58 0.56
0.42 0.35 0.21 0.17 0.18 0.22 0.33 0.45 0.58 0.65 0.71 0.74 0.65 0.61 0.47 0.44 0.38 0.39 0.45 0.45 0.45 0.40 0.36 0.35 0.38 0.39 0.44 0.49 0.56 0.57 0.67 0.83 0.94 1.00 1.03 1.07 1.02 0.85 0.75 0.66 0.58 0.54 0.52 0.52
0.29 0.29 0.25 0.19 0.16 0.26 0.47 0.56 0.63 0.62 0.57 0.50 0.47 0.42 0.31 0.28 0.22 0.22 0.29 0.33 0.37 0.36 0.31 0.29 0.30 0.33 0.39 0.48 0.52 0.57 0.66 0.77 0.80 0.85 0.87 0.91 0.89 0.74 0.67 0.56 0.48 0.49 0.49 0.51
0.26 0.30 0.36 0.27 0.23 0.45 0.66 0.53 0.48 0.53 0.43 0.29 0.26 0.25 0.24 0.19 0.16 0.13 0.14 0.17 0.19 0.23 0.24 0.29 0.28 0.27 0.30 0.38 0.49 0.62 0.65 0.65 0.65 0.70 0.72 0.71 0.71 0.65 0.57 0.47 0.44 0.44 0.46 0.50
0.28 0.37 0.45 0.40 0.38 0.50 0.59 0.40 0.37 0.45 0.42 0.23 0.17 0.16 0.14 0.12 0.10 0.07 0.08 0.11 0.12 0.12 0.15 0.20 0.20 0.20 0.21 0.23 0.27 0.32 0.37 0.39 0.40 0.49 0.56 0.61 0.61 0.57 0.51 0.46 0.51 0.54 0.52 0.50
0.41 0.47 0.51 0.47 0.55 0.62 0.44 0.19 0.18 0.32 0.49 0.21 0.12 0.10 0.09 0.09 0.11 0.09 0.09 0.11 0.10 0.08 0.08 0.11 0.15 0.14 0.14 0.15 0.17 0.19 0.21 0.24 0.25 0.31 0.37 0.45 0.51 0.54 0.56 0.66 0.72 0.71 0.66 0.58
0.32 0.39 0.48 0.53 0.73 0.68 0.40 0.18 0.19 0.36 0.52 0.27 0.12 0.08 0.09 0.09 0.09 0.08 0.10 0.10 0.09 0.08 0.06 0.08 0.10 0.11 0.13 0.13 0.13 0.15 0.17 0.16 0.17 0.17 0.23 0.33 0.49 0.55 0.63 0.75 0.78 0.74 0.66 0.58
0.31 0.42 0.55 0.68 0.87 0.89 0.45 0.25 0.30 0.28 0.19 0.16 0.10 0.08 0.08 0.07 0.07 0.08 0.08 0.07 0.08 0.08 0.07 0.07 0.08 0.09 0.12 0.13 0.11 0.12 0.18 0.17 0.18 0.17 0.21 0.29 0.39 0.51 0.64 0.73 0.71 0.70 0.70 0.63
0.28 0.50 0.72 0.72 0.74 0.58 0.35 0.25 0.19 0.13 0.12 0.08 0.06 0.06 0.06 0.05 0.06 0.07 0.09 0.08 0.07 0.07 0.07 0.08 0.09 0.09 0.10 0.10 0.11 0.11 0.14 0.17 0.17 0.17 0.17 0.19 0.27 0.40 0.57 0.64 0.65 0.65 0.68 0.66
0.16 0.22 0.36 0.32 0.22 0.19 0.16 0.14 0.10 0.07 0.07 0.04 0.03 0.03 0.05 0.06 0.05 0.06 0.07 0.07 0.07 0.07 0.06 0.06 0.07 0.07 0.08 0.10 0.11 0.14 0.16 0.16 0.15 0.17 0.17 0.16 0.17 0.21 0.29 0.36 0.43 0.50 0.54 0.56
0.14 0.16 0.27 0.27 0.14 0.09 0.08 0.08 0.06 0.05 0.05 0.03 0.02 0.02 0.03 0.05 0.04 0.04 0.07 0.06 0.07 0.08 0.08 0.06 0.07 0.08 0.08 0.09 0.09 0.12 0.14 0.16 0.16 0.17 0.18 0.18 0.19 0.21 0.23 0.24 0.28 0.33 0.35 0.43
0.10 0.16 0.22 0.24 0.15 0.09 0.07 0.05 0.05 0.05 0.04 0.03 0.02 0.02 0.03 0.04 0.04 0.04 0.04 0.05 0.06 0.07 0.07 0.07 0.08 0.09 0.09 0.10 0.10 0.10 0.11 0.12 0.14 0.14 0.14 0.13 0.14 0.17 0.19 0.21 0.23 0.25 0.26 0.31

GEFSCGP_prec_meanprecacc_240.txt.gz
Total_Precipitation_Accumulation
0.46 0.78 1.07 0.97 0.99 1.03 0.86 0.86 0.93 0.91 0.77 0.87 0.96 0.94 1.02 0.99 0.95 0.81 0.70 0.61 0.58 0.56 0.58 0.52 0.45 0.50 0.52 0.48 0.48 0.52 0.66 0.82 0.96 1.07 1.19 1.44 1.59 1.69 1.69 1.69 1.74 1.65 1.45 1.53
0.66 0.75 0.61 0.61 0.68 0.76 0.79 0.83 0.86 0.81 0.67 0.77 0.85 0.88 0.92 0.87 0.80 0.65 0.59 0.54 0.48 0.48 0.50 0.46 0.37 0.37 0.39 0.39 0.42 0.48 0.60 0.83 1.05 1.25 1.42 1.60 1.91 2.06 2.06 2.13 2.06 1.99 1.87 1.89
0.61 0.55 0.44 0.52 0.62 0.69 0.72 0.72 0.74 0.74 0.76 0.77 0.78 0.93 0.96 0.92 0.77 0.59 0.50 0.45 0.41 0.36 0.39 0.40 0.36 0.31 0.28 0.31 0.36 0.42 0.51 0.72 1.01 1.31 1.55 1.74 1.96 2.22 2.31 2.21 2.17 2.19 2.26 2.29
0.53 0.44 0.42 0.50 0.53 0.61 0.81 0.51 0.48 0.54 0.70 0.91 0.76 1.08 0.97 0.88 0.78 0.63 0.54 0.47 0.42 0.39 0.38 0.36 0.34 0.34 0.30 0.31 0.36 0.44 0.53 0.65 0.85 1.11 1.42 1.67 1.92 2.24 2.31 2.28 2.26 2.30 2.38 2.45
0.52 0.45 0.46 0.54 0.47 0.48 0.62 0.39 0.42 0.53 0.58 0.66 0.60 0.85 0.90 0.72 0.78 0.69 0.61 0.54 0.46 0.42 0.41 0.36 0.34 0.34 0.36 0.37 0.41 0.52 0.62 0.72 0.88 1.10 1.41 1.73 1.92 2.08 2.27 2.28 2.18 2.12 2.19 2.19
0.48 0.41 0.41 0.43 0.36 0.37 0.44 0.45 0.48 0.52 0.60 0.73 0.48 0.64 0.82 0.71 0.66 0.64 0.60 0.57 0.48 0.39 0.40 0.42 0.45 0.45 0.44 0.49 0.56 0.68 0.77 0.92 1.04 1.10 1.21 1.38 1.60 1.88 2.00 2.10 2.13 2.15 2.16 2.02
0.47 0.39 0.29 0.26 0.38 0.39 0.42 0.64 0.87 0.88 0.87 0.75 0.36 0.52 0.67 0.52 0.47 0.53 0.53 0.53 0.50 0.47 0.50 0.57 0.65 0.60 0.58 0.62 0.74 0.83 0.91 0.96 1.00 0.95 0.97 1.08 1.26 1.50 1.63 1.71 1.90 1.98 2.02 1.98
0.48 0.43 0.28 0.23 0.29 0.43 0.44 0.55 0.88 0.97 0.84 0.66 0.50 0.65 0.65 0.50 0.43 0.46 0.48 0.47 0.47 0.53 0.61 0.75 0.85 0.85 0.80 0.82 0.85 0.85 0.90 0.85 0.82 0.84 0.87 0.91 0.97 1.13 1.25 1.33 1.49 1.62 1.62 1.60
0.45 0.40 0.21 0.18 0.17 0.27 0.39 0.35 0.36 0.54 0.54 0.62 0.61 0.71 0.67 0.48 0.41 0.44 0.48 0.49 0.50 0.61 0.75 0.93 1.08 1.12 1.02 0.96 0.91 0.91 0.94 0.88 0.79 0.81 0.87 0.89 0.92 0.94 0.96 1.01 1.02 1.10 1.19 1.21
0.35 0.38 0.24 0.16 0.17 0.19 0.27 0.30 0.37 0.63 0.84 0.88 0.73 0.75 0.82 0.64 0.50 0.51 0.59 0.67 0.76 0.89 0.97 1.10 1.21 1.20 1.15 1.18 1.14 0.98 0.93 0.95 0.86 0.93 0.95 0.87 0.84 0.80 0.80 0.84 0.89 0.91 0.98 1.07
0.31 0.41 0.30 0.21 0.22 0.23 0.24 0.30 0.45 0.68 0.76 1.02 1.14 1.11 0.82 0.65 0.64 0.65 0.72 0.93 0.99 1.08 1.16 1.18 1.26 1.24 1.12 1.11 1.08 1.05 0.99 0.97 0.97 0.98 0.99 0.87 0.83 0.83 0.80 0.79 0.83 0.91 0.98 1.07
0.36 0.48 0.40 0.23 0.20 0.23 0.35 0.47 0.64 1.01 0.99 0.90 1.22 1.32 0.88 0.72 0.74 0.76 0.77 0.78 0.79 0.99 1.12 1.14 1.22 1.17 1.03 1.00 0.88 0.91 0.99 0.99 1.06 1.06 0.97 0.88 0.90 0.91 0.93 0.90 0.85 0.89 0.94 0.94
0.46 0.63 0.65 0.49 0.46 0.44 0.48 0.57 0.71 0.90 1.09 1.11 1.23 1.27 0.92 0.70 0.68 0.74 0.81 0.79 0.78 0.84 0.89 0.87 0.90 0.99 0.96 0.94 0.85 0.91 0.97 1.02 1.02 1.06 1.07 0.95 0.83 0.85 0.88 0.88 0.82 0.79 0.83 0.87
0.45 0.60 0.72 0.71 0.62 0.57 0.52 0.48 0.54 0.79 1.09 1.12 1.15 1.08 0.82 0.70 0.67 0.69 0.73 0.79 0.76 0.68 0.66 0.64 0.62 0.69 0.73 0.76 0.83 0.88 0.99 1.12 1.14 1.12 1.07 1.01 0.94 0.95 0.87 0.78 0.75 0.76 0.74 0.70
0.39 0.38 0.35 0.30 0.28 0.33 0.39 0.41 0.50 0.64 0.82 1.06 0.95 0.73 0.62 0.61 0.57 0.59 0.65 0.58 0.53 0.51 0.49 0.49 0.47 0.49 0.53 0.56 0.66 0.73 0.84 1.02 1.14 1.21 1.18 1.09 1.01 0.91 0.82 0.74 0.65 0.66 0.58 0.56
0.42 0.36 0.21 0.17 0.18 0.22 0.33 0.45 0.58 0.65 0.71 0.74 0.65 0.61 0.47 0.44 0.40 0.40 0.46 0.46 0.46 0.41 0.36 0.36 0.38 0.39 0.44 0.49 0.57 0.58 0.69 0.85 0.96 1.02 1.05 1.09 1.04 0.87 0.78 0.68 0.59 0.56 0.53 0.53
0.30 0.30 0.26 0.19 0.16 0.26 0.47 0.56 0.63 0.62 0.57 0.50 0.47 0.42 0.31 0.28 0.24 0.24 0.30 0.34 0.38 0.37 0.31 0.30 0.30 0.33 0.40 0.48 0.52 0.57 0.67 0.80 0.83 0.87 0.89 0.93 0.91 0.76 0.69 0.57 0.50 0.50 0.51 0.53
0.28 0.32 0.38 0.29 0.24 0.46 0.66 0.53 0.48 0.53 0.43 0.29 0.26 0.26 0.24 0.20 0.16 0.15 0.15 0.17 0.19 0.23 0.24 0.29 0.28 0.27 0.30 0.38 0.49 0.62 0.66 0.66 0.67 0.72 0.73 0.72 0.72 0.67 0.59 0.49 0.45 0.45 0.47 0.51
0.29 0.38 0.47 0.42 0.40 0.51 0.59 0.40 0.37 0.45 0.42 0.23 0.17 0.17 0.14 0.13 0.11 0.09 0.09 0.12 0.12 0.12 0.15 0.20 0.20 0.20 0.21 0.23 0.27 0.33 0.38 0.40 0.41 0.51 0.58 0.62 0.63 0.59 0.54 0.49 0.53 0.55 0.53 0.51
0.41 0.49 0.53 0.50 0.57 0.64 0.45 0.19 0.18 0.33 0.50 0.21 0.12 0.10 0.09 0.09 0.12 0.10 0.10 0.11 0.10 0.09 0.08 0.11 0.15 0.14 0.14 0.16 0.17 0.19 0.22 0.26 0.28 0.33 0.39 0.46 0.52 0.55 0.58 0.68 0.74 0.73 0.68 0.60
0.33 0.41 0.50 0.56 0.75 0.70 0.41 0.18 0.20 0.37 0.52 0.27 0.12 0.08 0.09 0.10 0.10 0.09 0.10 0.10 0.09 0.08 0.06 0.08 0.10 0.11 0.13 0.13 0.13 0.16 0.18 0.18 0.19 0.19 0.24 0.34 0.49 0.56 0.65 0.78 0.81 0.76 0.68 0.59
0.34 0.46 0.57 0.70 0.90 0.93 0.47 0.26 0.30 0.28 0.19 0.16 0.10 0.08 0.09 0.08 0.08 0.08 0.09 0.08 0.08 0.08 0.07 0.07 0.08 0.09 0.12 0.14 0.11 0.12 0.19 0.18 0.19 0.19 0.23 0.30 0.40 0.52 0.65 0.75 0.74 0.72 0.72 0.65
0.30 0.53 0.75 0.75 0.77 0.61 0.36 0.25 0.19 0.13 0.12 0.08 0.06 0.06 0.07 0.07 0.08 0.08 0.09 0.08 0.07 0.08 0.07 0.08 0.09 0.09 0.10 0.11 0.12 0.12 0.15 0.17 0.18 0.18 0.18 0.20 0.28 0.42 0.59 0.67 0.68 0.68 0.70 0.68
0.16 0.24 0.37 0.34 0.24 0.20 0.17 0.15 0.10 0.07 0.07 0.04 0.03 0.03 0.07 0.09 0.09 0.08 0.08 0.08 0.08 0.08 0.07 0.06 0.08 0.08 0.09 0.11 0.13 0.16 0.18 0.17 0.16 0.18 0.19 0.17 0.18 0.23 0.32 0.39 0.46 0.53 0.58 0.59
0.15 0.18 0.28 0.28 0.14 0.10 0.09 0.08 0.06 0.05 0.05 0.03 0.02 0.02 0.04 0.08 0.09 0.06 0.08 0.07 0.08 0.08 0.08 0.07 0.08 0.08 0.09 0.11 0.11 0.13 0.16 0.18 0.17 0.19 0.20 0.20 0.22 0.25 0.26 0.28 0.32 0.36 0.39 0.46
0.10 0.17 0.24 0.25 0.16 0.10 0.07 0.06 0.05 0.05 0.04 0.03 0.02 0.03 0.05 0.07 0.07 0.06 0.05 0.06 0.07 0.08 0.09 0.08 0.09 0.10 0.10 0.11 0.12 0.12 0.13 0.14 0.16 0.17 0.16 0.16 0.17 0.20 0.22 0.23 0.26 0.28 0.29 0.35

GEFSCGP_prec_meanprecacc_246.txt.gz
Total_Precipitation_Accumulation
0.47 0.79 1.08 0.97 1.00 1.04 0.87 0.88 0.94 0.91 0.77 0.88 0.98 0.95 1.03 1.00 0.96 0.82 0.72 0.63 0.60 0.58 0.60 0.56 0.50 0.54 0.54 0.50 0.49 0.54 0.68 0.84 0.97 1.08 1.21 1.45 1.61 1.71 1.71 1.71 1.75 1.66 1.47 1.54
0.67 0.76 0.62 0.62 0.69 0.77 0.80 0.85 0.88 0.83 0.68 0.77 0.86 0.89 0.93 0.89 0.81 0.66 0.59 0.54 0.49 0.48 0.52 0.48 0.39 0.38 0.40 0.40 0.43 0.50 0.63 0.85 1.07 1.27 1.44 1.61 1.92 2.08 2.08 2.14 2.07 2.00 1.88 1.89
0.62 0.57 0.45 0.53 0.63 0.71 0.74 0.74 0.76 0.75 0.77 0.78 0.80 0.95 0.97 0.93 0.78 0.60 0.50 0.45 0.42 0.37 0.40 0.41 0.36 0.32 0.29 0.32 0.37 0.44 0.53 0.75 1.04 1.32 1.57 1.75 1.97 2.23 2.31 2.21 2.18 2.19 2.26 2.29
0.56 0.46 0.43 0.51 0.54 0.62 0.83 0.52 0.50 0.55 0.71 0.93 0.78 1.09 0.98 0.90 0.80 0.64 0.55 0.48 0.43 0.40 0.38 0.36 0.34 0.35 0.30 0.31 0.36 0.45 0.54 0.67 0.87 1.13 1.44 1.68 1.92 2.25 2.32 2.28 2.26 2.31 2.38 2.45
0.53 0.47 0.47 0.55 0.48 0.50 0.64 0.40 0.43 0.55 0.59 0.67 0.61 0.86 0.91 0.74 0.80 0.70 0.62 0.54 0.46 0.42 0.41 0.36 0.34 0.35 0.37 0.38 0.42 0.53 0.63 0.74 0.90 1.13 1.44 1.75 1.92 2.08 2.27 2.29 2.19 2.13 2.19 2.19
0.50 0.42 0.42 0.44 0.37 0.38 0.46 0.46 0.49 0.54 0.61 0.74 0.48 0.65 0.83 0.73 0.69 0.67 0.61 0.58 0.48 0.40 0.41 0.42 0.45 0.45 0.44 0.49 0.58 0.70 0.78 0.94 1.06 1.13 1.24 1.40 1.61 1.89 2.01 2.11 2.14 2.16 2.16 2.03
0.48 0.40 0.30 0.27 0.39 0.40 0.44 0.65 0.90 0.90 0.88 0.78 0.39 0.54 0.70 0.57 0.49 0.54 0.54 0.55 0.51 0.48 0.51 0.58 0.65 0.61 0.58 0.62 0.75 0.85 0.93 0.98 1.02 0.98 0.99 1.11 1.28 1.51 1.64 1.72 1.91 1.99 2.04 1.99
0.50 0.44 0.29 0.23 0.30 0.43 0.45 0.57 0.90 1.00 0.87 0.70 0.55 0.71 0.72 0.52 0.44 0.46 0.49 0.48 0.48 0.54 0.62 0.76 0.86 0.86 0.81 0.82 0.87 0.87 0.91 0.86 0.84 0.87 0.90 0.95 1.00 1.16 1.27 1.34 1.50 1.63 1.63 1.61
0.46 0.41 0.21 0.19 0.17 0.28 0.40 0.36 0.38 0.57 0.58 0.66 0.64 0.76 0.71 0.48 0.41 0.45 0.49 0.50 0.51 0.62 0.76 0.94 1.10 1.13 1.04 0.97 0.93 0.92 0.96 0.90 0.81 0.83 0.90 0.93 0.95 0.96 0.98 1.04 1.04 1.12 1.20 1.22
0.36 0.39 0.25 0.17 0.18 0.20 0.28 0.31 0.39 0.65 0.88 0.92 0.77 0.82 0.86 0.65 0.50 0.52 0.60 0.69 0.77 0.91 0.98 1.11 1.24 1.24 1.18 1.20 1.16 1.00 0.96 0.98 0.89 0.95 0.97 0.91 0.87 0.83 0.83 0.88 0.93 0.93 1.00 1.08
0.32 0.42 0.30 0.21 0.23 0.24 0.25 0.31 0.46 0.69 0.78 1.05 1.21 1.17 0.84 0.67 0.65 0.65 0.73 0.96 1.02 1.12 1.18 1.20 1.28 1.28 1.16 1.15 1.11 1.08 1.03 1.00 1.00 1.00 1.01 0.90 0.87 0.86 0.84 0.83 0.86 0.93 0.99 1.08
0.37 0.49 0.40 0.23 0.21 0.25 0.36 0.48 0.65 1.01 1.00 0.92 1.25 1.36 0.89 0.73 0.75 0.77 0.79 0.80 0.84 1.05 1.16 1.16 1.23 1.19 1.06 1.03 0.92 0.96 1.03 1.03 1.10 1.10 1.01 0.92 0.94 0.95 0.97 0.93 0.88 0.90 0.94 0.95
0.48 0.65 0.66 0.50 0.47 0.45 0.49 0.57 0.72 0.91 1.10 1.12 1.24 1.29 0.93 0.71 0.70 0.76 0.82 0.80 0.82 0.91 0.94 0.90 0.92 1.00 0.97 0.95 0.88 0.96 1.02 1.08 1.09 1.12 1.11 0.98 0.87 0.88 0.91 0.91 0.83 0.81 0.84 0.87
0.47 0.63 0.74 0.72 0.63 0.58 0.53 0.48 0.55 0.80 1.10 1.12 1.15 1.08 0.83 0.71 0.69 0.71 0.75 0.80 0.78 0.73 0.72 0.67 0.63 0.70 0.74 0.77 0.84 0.91 1.03 1.18 1.19 1.18 1.13 1.07 0.97 0.98 0.90 0.81 0.78 0.78 0.75 0.71
0.41 0.41 0.36 0.30 0.28 0.33 0.40 0.41 0.51 0.65 0.82 1.06 0.95 0.74 0.63 0.62 0.58 0.60 0.66 0.59 0.55 0.54 0.53 0.53 0.50 0.51 0.54 0.58 0.67 0.74 0.86 1.06 1.18 1.25 1.23 1.15 1.06 0.95 0.86 0.76 0.68 0.69 0.61 0.58
0.44 0.38 0.23 0.17 0.18 0.23 0.33 0.45 0.59 0.65 0.72 0.74 0.65 0.61 0.47 0.44 0.40 0.41 0.47 0.47 0.47 0.43 0.38 0.38 0.42 0.42 0.46 0.50 0.57 0.59 0.70 0.87 1.00 1.06 1.09 1.15 1.11 0.93 0.82 0.72 0.62 0.59 0.57 0.56
0.31 0.31 0.27 0.20 0.16 0.27 0.47 0.56 0.63 0.63 0.58 0.50 0.48 0.43 0.31 0.28 0.25 0.24 0.30 0.35 0.40 0.39 0.33 0.31 0.32 0.35 0.42 0.50 0.53 0.58 0.68 0.81 0.85 0.91 0.93 0.98 0.98 0.82 0.74 0.63 0.55 0.54 0.53 0.54
0.30 0.33 0.40 0.29 0.25 0.47 0.67 0.54 0.49 0.54 0.44 0.30 0.27 0.26 0.24 0.20 0.17 0.15 0.16 0.18 0.21 0.24 0.25 0.30 0.28 0.27 0.31 0.38 0.49 0.63 0.67 0.67 0.69 0.74 0.76 0.76 0.78 0.73 0.65 0.54 0.49 0.48 0.50 0.53
0.30 0.40 0.49 0.43 0.41 0.52 0.60 0.41 0.39 0.46 0.43 0.23 0.18 0.17 0.14 0.13 0.11 0.10 0.10 0.12 0.13 0.13 0.15 0.20 0.20 0.20 0.21 0.24 0.27 0.33 0.39 0.42 0.43 0.53 0.60 0.65 0.67 0.64 0.58 0.52 0.56 0.59 0.56 0.54
0.43 0.50 0.55 0.52 0.59 0.66 0.46 0.20 0.19 0.34 0.51 0.22 0.12 0.11 0.09 0.10 0.12 0.11 0.11 0.12 0.11 0.09 0.08 0.11 0.15 0.14 0.14 0.16 0.17 0.20 0.24 0.27 0.30 0.35 0.42 0.50 0.57 0.59 0.62 0.71 0.77 0.76 0.70 0.62
0.34 0.42 0.52 0.58 0.77 0.72 0.42 0.19 0.21 0.39 0.54 0.28 0.13 0.10 0.11 0.11 0.11 0.09 0.10 0.11 0.09 0.08 0.06 0.08 0.10 0.11 0.13 0.14 0.14 0.16 0.19 0.19 0.22 0.22 0.27 0.37 0.53 0.60 0.69 0.81 0.83 0.78 0.70 0.61
0.35 0.47 0.59 0.73 0.93 0.95 0.48 0.27 0.33 0.31 0.21 0.17 0.11 0.09 0.09 0.09 0.09 0.09 0.09 0.08 0.08 0.08 0.07 0.07 0.08 0.09 0.12 0.14 0.12 0.13 0.19 0.19 0.23 0.24 0.25 0.32 0.43 0.55 0.69 0.79 0.77 0.75 0.74 0.67
0.31 0.55 0.78 0.78 0.79 0.62 0.37 0.26 0.21 0.15 0.14 0.09 0.07 0.07 0.08 0.08 0.08 0.09 0.09 0.08 0.07 0.08 0.07 0.08 0.09 0.09 0.10 0.11 0.13 0.12 0.15 0.19 0.21 0.23 0.21 0.22 0.30 0.45 0.62 0.70 0.71 0.71 0.72 0.70
0.18 0.26 0.40 0.36 0.26 0.21 0.18 0.16 0.11 0.08 0.08 0.05 0.03 0.04 0.07 0.10 0.09 0.08 0.08 0.08 0.08 0.08 0.07 0.07 0.09 0.09 0.09 0.11 0.13 0.16 0.19 0.19 0.19 0.21 0.21 0.19 0.19 0.25 0.35 0.42 0.49 0.56 0.60 0.61
0.17 0.21 0.30 0.29 0.17 0.12 0.12 0.10 0.07 0.06 0.05 0.03 0.02 0.03 0.04 0.08 0.09 0.06 0.08 0.07 0.08 0.08 0.08 0.08 0.09 0.10 0.10 0.11 0.12 0.14 0.18 0.20 0.20 0.21 0.22 0.22 0.23 0.26 0.28 0.31 0.34 0.38 0.41 0.49
0.12 0.18 0.26 0.27 0.18 0.13 0.09 0.08 0.07 0.06 0.04 0.03 0.03 0.03 0.06 0.08 0.08 0.06 0.06 0.06 0.07 0.08 0.09 0.09 0.10 0.12 0.11 0.12 0.13 0.13 0.14 0.16 0.18 0.19 0.19 0.18 0.20 0.23 0.24 0.26 0.28 0.30 0.31 0.37

GEFSCGP_prec_meanprecacc_252.txt.gz
Total_Precipitation_Accumulation
0.48 0.81 1.09 0.98 1.00 1.05 0.88 0.88 0.94 0.93 0.79 0.90 0.98 0.95 1.04 1.02 0.98 0.83 0.72 0.64 0.64 0.62 0.64 0.59 0.53 0.55 0.55 0.51 0.51 0.57 0.71 0.86 1.00 1.11 1.22 1.46 1.61 1.72 1.72 1.71 1.75 1.66 1.47 1.55
0.68 0.77 0.63 0.63 0.70 0.79 0.82 0.86 0.89 0.84 0.69 0.79 0.87 0.90 0.95 0.90 0.82 0.67 0.60 0.55 0.51 0.49 0.53 0.51 0.42 0.40 0.42 0.43 0.45 0.51 0.65 0.87 1.09 1.30 1.46 1.63 1.93 2.09 2.09 2.15 2.07 2.00 1.88 1.90
0.63 0.58 0.47 0.55 0.64 0.73 0.75 0.75 0.78 0.76 0.78 0.79 0.81 0.96 0.99 0.94 0.79 0.61 0.50 0.45 0.42 0.37 0.41 0.42 0.38 0.33 0.30 0.32 0.38 0.46 0.56 0.77 1.06 1.36 1.59 1.77 1.99 2.23 2.32 2.22 2.18 2.20 2.26 2.29
0.57 0.47 0.45 0.52 0.55 0.63 0.84 0.54 0.51 0.56 0.72 0.93 0.79 1.10 0.98 0.90 0.80 0.64 0.55 0.48 0.43 0.40 0.39 0.36 0.34 0.35 0.30 0.32 0.37 0.46 0.57 0.70 0.91 1.17 1.48 1.72 1.96 2.27 2.33 2.29 2.27 2.31 2.39 2.45
0.54 0.48 0.48 0.55 0.48 0.51 0.65 0.41 0.44 0.56 0.60 0.67 0.61 0.86 0.91 0.74 0.80 0.71 0.63 0.55 0.47 0.43 0.41 0.36 0.35 0.35 0.37 0.38 0.42 0.54 0.65 0.76 0.92 1.16 1.47 1.78 1.96 2.13 2.31 2.31 2.20 2.13 2.20 2.19
0.50 0.43 0.43 0.44 0.37 0.39 0.46 0.47 0.50 0.55 0.61 0.74 0.49 0.65 0.83 0.74 0.70 0.68 0.62 0.58 0.49 0.40 0.42 0.43 0.46 0.46 0.45 0.50 0.58 0.71 0.80 0.96 1.08 1.16 1.27 1.43 1.64 1.92 2.04 2.12 2.15 2.17 2.17 2.03
0.49 0.40 0.30 0.28 0.40 0.41 0.44 0.66 0.91 0.91 0.89 0.78 0.39 0.55 0.71 0.60 0.51 0.54 0.55 0.55 0.52 0.49 0.52 0.59 0.66 0.62 0.59 0.63 0.76 0.86 0.94 0.99 1.04 1.00 1.01 1.12 1.29 1.53 1.65 1.73 1.92 2.00 2.05 2.00
0.50 0.44 0.29 0.24 0.30 0.44 0.45 0.58 0.92 1.01 0.87 0.71 0.57 0.74 0.74 0.53 0.44 0.47 0.49 0.48 0.48 0.55 0.63 0.78 0.88 0.88 0.82 0.84 0.88 0.88 0.92 0.87 0.87 0.89 0.91 0.96 1.02 1.17 1.29 1.35 1.51 1.64 1.65 1.63
0.47 0.41 0.22 0.19 0.18 0.28 0.41 0.37 0.38 0.58 0.59 0.67 0.65 0.76 0.71 0.48 0.41 0.45 0.50 0.50 0.52 0.65 0.77 0.95 1.11 1.15 1.06 0.99 0.94 0.94 0.98 0.92 0.84 0.87 0.94 0.96 0.97 0.98 1.00 1.06 1.06 1.13 1.22 1.23
0.38 0.40 0.25 0.18 0.18 0.21 0.28 0.31 0.39 0.65 0.88 0.92 0.77 0.82 0.87 0.65 0.51 0.52 0.60 0.70 0.78 0.92 0.98 1.12 1.24 1.25 1.20 1.22 1.18 1.02 0.98 1.01 0.93 1.01 1.02 0.94 0.90 0.86 0.86 0.90 0.95 0.95 1.02 1.11
0.33 0.42 0.31 0.22 0.24 0.25 0.25 0.31 0.46 0.69 0.78 1.06 1.21 1.18 0.85 0.68 0.65 0.66 0.73 0.98 1.05 1.13 1.20 1.21 1.29 1.28 1.18 1.16 1.12 1.10 1.05 1.02 1.04 1.05 1.07 0.95 0.91 0.90 0.87 0.86 0.89 0.97 1.03 1.13
0.38 0.50 0.41 0.24 0.22 0.26 0.37 0.49 0.65 1.02 1.01 0.93 1.25 1.36 0.90 0.74 0.76 0.78 0.79 0.83 0.90 1.10 1.19 1.18 1.24 1.20 1.07 1.04 0.93 0.97 1.04 1.05 1.12 1.13 1.05 0.97 1.01 1.01 1.02 0.98 0.92 0.95 0.99 0.99
0.50 0.67 0.68 0.51 0.49 0.46 0.49 0.58 0.72 0.92 1.11 1.12 1.24 1.29 0.94 0.71 0.70 0.76 0.83 0.81 0.86 0.97 0.98 0.92 0.94 1.01 0.98 0.96 0.89 0.97 1.04 1.10 1.10 1.14 1.14 1.03 0.94 0.95 0.98 0.97 0.89 0.85 0.88 0.91
0.48 0.64 0.76 0.75 0.66 0.59 0.54 0.48 0.55 0.81 1.11 1.12 1.16 1.09 0.83 0.71 0.69 0.71 0.76 0.80 0.79 0.76 0.76 0.69 0.66 0.71 0.74 0.78 0.85 0.92 1.04 1.19 1.22 1.21 1.16 1.10 1.03 1.04 0.96 0.87 0.83 0.82 0.78 0.73
0.42 0.42 0.37 0.31 0.29 0.34 0.40 0.42 0.51 0.65 0.83 1.06 0.95 0.74 0.63 0.62 0.58 0.60 0.66 0.59 0.55 0.54 0.54 0.55 0.53 0.53 0.55 0.59 0.67 0.75 0.87 1.07 1.19 1.28 1.26 1.17 1.09 1.00 0.91 0.82 0.73 0.73 0.64 0.62
0.45 0.38 0.23 0.18 0.18 0.23 0.33 0.45 0.59 0.66 0.72 0.74 0.65 0.61 0.47 0.45 0.40 0.41 0.47 0.47 0.48 0.43 0.38 0.39 0.42 0.43 0.48 0.52 0.59 0.60 0.71 0.88 1.00 1.08 1.11 1.17 1.13 0.96 0.85 0.75 0.66 0.64 0.62 0.61
0.32 0.32 0.28 0.20 0.16 0.27 0.48 0.57 0.64 0.64 0.59 0.51 0.48 0.43 0.31 0.28 0.25 0.24 0.30 0.35 0.41 0.40 0.34 0.32 0.32 0.36 0.43 0.51 0.55 0.59 0.70 0.82 0.86 0.91 0.94 0.99 0.99 0.84 0.77 0.66 0.59 0.57 0.57 0.58
0.30 0.34 0.41 0.30 0.25 0.48 0.68 0.55 0.50 0.55 0.45 0.31 0.28 0.27 0.25 0.20 0.17 0.15 0.16 0.19 0.21 0.24 0.25 0.30 0.28 0.28 0.32 0.39 0.50 0.64 0.68 0.68 0.69 0.75 0.77 0.77 0.79 0.74 0.67 0.57 0.54 0.54 0.56 0.59
0.31 0.41 0.50 0.45 0.42 0.53 0.61 0.41 0.39 0.47 0.45 0.25 0.19 0.18 0.15 0.13 0.11 0.10 0.10 0.12 0.13 0.13 0.16 0.20 0.20 0.20 0.22 0.24 0.28 0.34 0.39 0.43 0.45 0.54 0.62 0.66 0.68 0.65 0.60 0.54 0.60 0.64 0.61 0.60
0.43 0.51 0.56 0.53 0.60 0.67 0.47 0.20 0.20 0.34 0.52 0.22 0.13 0.11 0.10 0.10 0.12 0.11 0.11 0.12 0.11 0.09 0.08 0.12 0.15 0.14 0.14 0.16 0.17 0.20 0.24 0.28 0.31 0.37 0.45 0.52 0.59 0.61 0.63 0.73 0.80 0.80 0.76 0.67
0.35 0.43 0.53 0.59 0.78 0.73 0.43 0.19 0.21 0.40 0.55 0.28 0.13 0.10 0.11 0.11 0.11 0.09 0.11 0.11 0.10 0.08 0.07 0.08 0.11 0.12 0.13 0.14 0.14 0.16 0.19 0.19 0.22 0.23 0.29 0.40 0.56 0.64 0.71 0.83 0.86 0.83 0.76 0.65
0.37 0.48 0.60 0.73 0.94 0.96 0.49 0.28 0.34 0.32 0.21 0.17 0.11 0.09 0.10 0.09 0.09 0.09 0.09 0.08 0.08 0.09 0.07 0.08 0.09 0.09 0.12 0.14 0.12 0.13 0.20 0.20 0.24 0.25 0.26 0.34 0.45 0.58 0.72 0.81 0.79 0.78 0.79 0.71
0.32 0.56 0.79 0.79 0.80 0.63 0.38 0.27 0.22 0.16 0.15 0.09 0.07 0.07 0.08 0.08 0.08 0.09 0.09 0.08 0.08 0.08 0.07 0.09 0.09 0.10 0.10 0.11 0.13 0.13 0.16 0.20 0.23 0.25 0.21 0.23 0.32 0.46 0.64 0.72 0.73 0.74 0.76 0.73
0.18 0.27 0.41 0.39 0.28 0.22 0.19 0.17 0.12 0.09 0.09 0.06 0.04 0.04 0.07 0.10 0.09 0.08 0.08 0.08 0.08 0.08 0.07 0.07 0.09 0.09 0.10 0.11 0.13 0.16 0.19 0.20 0.20 0.22 0.22 0.21 0.21 0.27 0.36 0.44 0.50 0.58 0.63 0.63
0.18 0.22 0.31 0.31 0.18 0.13 0.13 0.13 0.10 0.08 0.07 0.05 0.04 0.03 0.05 0.08 0.09 0.06 0.08 0.07 0.08 0.08 0.08 0.08 0.09 0.11 0.10 0.12 0.12 0.15 0.19 0.21 0.21 0.22 0.24 0.24 0.25 0.28 0.29 0.32 0.35 0.39 0.43 0.51
0.12 0.19 0.27 0.29 0.20 0.14 0.11 0.11 0.11 0.10 0.08 0.07 0.05 0.04 0.06 0.08 0.08 0.06 0.06 0.06 0.07 0.08 0.09 0.09 0.11 0.12 0.12 0.12 0.14 0.14 0.15 0.17 0.19 0.20 0.21 0.20 0.21 0.24 0.25 0.27 0.29 0.32 0.32 0.39